Overview Statistics Trail Chart Weather Telemetry Raw packets
 

This is the latest recevied weather packets stored in our database for station/object CE3TDM-10. If no packets are shown the sender has not sent any weather packets the latest 10 day(s).

<< 4 5 6 7 8 9 10 >>
Time Temp. Humidity Pressure Rain* Wind** Luminosity Snow
1788451329 31.11° C 35% 925.6 hPa - - - -
1788450429 29.44° C 36% 925.7 hPa - - - -
1788449529 27.78° C 35% 925.8 hPa - - - -
1788448629 27.22° C 37% 925.9 hPa - - - -
1788447729 25° C 37% 925.9 hPa - - - -
1788445929 24.44° C 37% 926.1 hPa - - - -
1788445028 24.44° C 37% 926 hPa - - - -
1788444130 23.89° C 37% 925.9 hPa - - - -
1788443228 23.89° C 37% 925.7 hPa - - - -
1788442329 23.33° C 37% 925.5 hPa - - - -
1788441428 23.33° C 37% 925.5 hPa - - - -
1788439628 22.78° C 37% 925.4 hPa - - - -
1788438728 22.78° C 37% 925.3 hPa - - - -
1788437828 22.22° C 37% 925.3 hPa - - - -
1788436928 22.22° C 37% 925.1 hPa - - - -
1788436028 22.22° C 37% 925.2 hPa - - - -
1788434227 21.67° C 37% 925.1 hPa - - - -
1788433327 21.67° C 37% 924.8 hPa - - - -
1788432427 21.67° C 37% 924.8 hPa - - - -
1788430627 22.22° C 37% 924.6 hPa - - - -
1788429727 22.22° C 37% 924.5 hPa - - - -
1788428827 22.22° C 37% 924.6 hPa - - - -
1788427927 22.78° C 37% 924.7 hPa - - - -
1788426128 22.78° C 37% 924.4 hPa - - - -
1788425227 22.78° C 37% 924.7 hPa - - - -

* Rain since midnight (hover to see other rain measurements)
** Current wind speed in m/s (hover to see current wind gust speed)